Home > Weather > Falkensee > Past weeks

Flag for Germany Past Weather in Falkensee, Brandenburg, Germany — Yesterday and Last 2 Weeks

Now
63 °F

Passing clouds.


Feels Like: 63 °F
Forecast: 52 / 74 °F
Wind: 3 mph from East

Location: Berlin-Tegel

Current Time: Jun 29, 2016 at 5:46:23 AM

Latest Report: Jun 29, 2016 at 5:20 AM


Visibility: N/A

Pressure: 29.86 "Hg

Humidity: 59%

Dew Point: 48 °F

Location of FalkenseeLocation

Past Weather in Falkensee — Graph

°F

Falkensee Temperature Yesterday

Maximum temperature yesterday: 72 °F (at 2:20 PM)
Minimum temperature yesterday: 61 °F (at 11:20 PM)
Average temperature yesterday: 66 °F

High & Low Weather Summary for the Past Weeks

 TemperatureHumidityPressure
High95 °F (Jun 24, 3:50 PM)94% (Jun 14, 6:20 AM)30.24 "Hg (Jun 14, 6:20 AM)
Low48 °F (Jun 20, 4:50 AM)23% (Jun 24, 4:20 PM)29.47 "Hg (Jun 14, 4:20 PM)
Average68 °F65%29.92 "Hg
* Reported Jun 14 4:20 AM — Jun 29 4:20 AM, Falkensee, Weather by CustomWeather, © 2016

Note: Actual official high and low records may vary slightly from our data, if they occured in-between our weather recording intervals... More about our weather records

Advertising

Falkensee Weather History for the Previous 24 Hours

Scroll right to see more
 ConditionsComfort  
Time TempWeatherWind HumidityBarometerVisibility
4:20 AM
Wed, Jun 29
61 °FClear.5 mph59%29.89 "Hg10 mi
3:50 AM61 °FClear.3 mph59%29.92 "Hg10 mi
3:20 AM59 °FPassing clouds.3 mph68%29.92 "HgN/A
2:50 AM59 °FPassing clouds.5 mph68%29.92 "HgN/A
2:20 AM59 °FClear.2 mph68%29.92 "Hg10 mi
1:50 AM59 °FClear.3 mph68%29.95 "Hg10 mi
1:20 AM57 °FClear.2 mph72%29.95 "Hg10 mi
12:20 AM59 °FClear.1 mph63%29.95 "Hg10 mi
11:20 PM
Tue, Jun 28
61 °FClear.1 mph59%29.98 "Hg10 mi
10:50 PM63 °FClear.1 mph59%29.98 "Hg10 mi
10:20 PM63 °FSunny.1 mph56%29.98 "Hg10 mi
9:50 PM64 °FSunny.1 mph49%29.98 "Hg10 mi
9:20 PM66 °FSunny.2 mph43%29.98 "Hg10 mi
8:50 PM68 °FPassing clouds.5 mph43%29.98 "HgN/A
8:20 PM68 °FPassing clouds.6 mph43%29.98 "HgN/A
7:50 PM70 °FPassing clouds.7 mph40%29.98 "HgN/A
7:20 PM70 °FPassing clouds.7 mph38%29.98 "HgN/A
6:50 PM70 °FPassing clouds.8 mph38%30.01 "HgN/A
6:20 PM72 °FPassing clouds.5 mph38%30.01 "HgN/A
5:50 PM72 °FPassing clouds.9 mph33%30.01 "HgN/A
5:20 PM72 °FPassing clouds.7 mph41%30.01 "HgN/A
4:50 PM72 °FPassing clouds.7 mph41%30.01 "HgN/A
4:20 PM70 °FPassing clouds.8 mph43%30.01 "HgN/A
3:50 PM70 °FScattered clouds.5 mph46%30.01 "HgN/A
3:20 PM72 °FScattered clouds.8 mph44%30.01 "HgN/A
2:50 PM70 °FScattered clouds.10 mph50%30.01 "HgN/A
2:20 PM72 °FScattered clouds.9 mph53%30.04 "HgN/A
1:50 PM66 °FScattered clouds.8 mph56%30.04 "HgN/A
1:20 PM70 °FScattered clouds.8 mph50%30.04 "HgN/A
12:50 PM68 °FScattered clouds.9 mph53%30.04 "HgN/A
12:20 PM66 °FPartly sunny.9 mph56%30.04 "HgN/A
11:50 AM66 °FPartly sunny.7 mph56%30.04 "HgN/A
11:20 AM66 °FPassing clouds.8 mph60%30.07 "HgN/A
10:50 AM64 °FBroken clouds.9 mph68%30.04 "HgN/A
10:20 AM64 °FBroken clouds.10 mph68%30.04 "HgN/A
9:50 AM63 °FPartly sunny.14 mph77%30.04 "HgN/A
9:20 AM63 °FScattered clouds.12 mph83%30.04 "HgN/A
8:50 AM64 °FBroken clouds.7 mph83%30.01 "HgN/A
8:20 AM63 °FBroken clouds.9 mph88%30.01 "HgN/A
7:50 AM63 °FLight rain. Partly sunny.10 mph83%30.01 "HgN/A
7:20 AM64 °FPartly sunny.12 mph73%30.01 "HgN/A
6:50 AM64 °FPartly sunny.6 mph73%30.01 "HgN/A
6:20 AM63 °FBroken clouds.3 mph77%30.01 "HgN/A
5:50 AM63 °FBroken clouds.5 mph77%30.01 "HgN/A
5:20 AM63 °FPassing clouds.6 mph77%30.01 "HgN/A
Weather by CustomWeather, © 2016

See weather overviewHow to use our weather pages